This is the latest recevied weather packets stored in our database for station/object SA6BET-2. If no packets are shown the sender has not sent any weather packets the latest 10 day(s).
| Time | Temp. | Humidity | Pressure | Rain* | Wind** | Luminosity | Snow |
|---|---|---|---|---|---|---|---|
| 1787663483 | 34.44° C | 68% | 1015.4 hPa | - | - | - | - |
| 1787662583 | 33.89° C | 70% | 1015.6 hPa | - | - | - | - |
| 1787661682 | 34.44° C | 63% | 1015.7 hPa | - | - | - | - |
| 1787660782 | 34.44° C | 62% | 1015.9 hPa | - | - | - | - |
| 1787659882 | 33.89° C | 59% | 1015.8 hPa | - | - | - | - |
| 1787658982 | 33.89° C | 69% | 1016 hPa | - | - | - | - |
| 1787658082 | 35° C | 67% | 1016.2 hPa | - | - | - | - |
| 1787657182 | 35° C | 64% | 1016.3 hPa | - | - | - | - |
| 1787656281 | 33.89° C | 67% | 1016.2 hPa | - | - | - | - |
| 1787655381 | 33.33° C | 54% | 1016.3 hPa | - | - | - | - |
| 1787654481 | 33.33° C | 54% | 1016.6 hPa | - | - | - | - |
| 1787653581 | 33.89° C | 65% | 1016.7 hPa | - | - | - | - |
| 1787652681 | 32.22° C | 66% | 1016.9 hPa | - | - | - | - |
| 1787651780 | 32.22° C | 55% | 1017 hPa | - | - | - | - |
| 1787651586 | 32.78° C | 58% | 1016.6 hPa | - | - | - | - |
| 1787650686 | 32.78° C | 59% | 1017 hPa | - | - | - | - |
| 1787649786 | 31.67° C | 65% | 1017.2 hPa | - | - | - | - |
| 1787648886 | 30.56° C | 70% | 1017.4 hPa | - | - | - | - |
| 1787647986 | 29.44° C | 76% | 1016.4 hPa | - | - | - | - |
| 1787647819 | 28.33° C | 84% | 1016.7 hPa | - | - | - | - |
| 1787647085 | 28.33° C | 84% | 1016.7 hPa | - | - | - | - |
| 1787646185 | 28.33° C | 89% | 1016.8 hPa | - | - | - | - |
| 1787645285 | 27.78° C | 92% | 1016.8 hPa | - | - | - | - |
| 1787644385 | 26.67° C | 100% | 1017.1 hPa | - | - | - | - |
| 1787643485 | 26.67° C | 100% | 1016.9 hPa | - | - | - | - |
* Rain since midnight (hover to see other rain measurements)
** Current wind speed in m/s (hover to see current wind gust speed)